Location: Santa Clara
(37.3540°N, 121.9540°W)
Time: 04:32:47
(UTC-08:00)

BlueWalker 3 - Visible Passes

Search period start: 02 December 2022 00:00
Search period end: 12 December 2022 00:00
Orbit: 500 x 519 km, 53.2° (Epoch: 01 December)

Date Brightness Start Highest point End Pass type
(mag) Time Alt. Az. Time Alt. Az. Time Alt. Az.
05 Dec 4.3 18:17:17 10° N 18:18:09 12° N 18:18:09 12° N visible
06 Dec 4.1 17:58:47 10° N 18:00:30 12° NNE 18:00:41 12° NNE visible
07 Dec 4.0 17:40:17 10° N 17:42:08 13° NNE 17:43:20 12° NE visible
07 Dec 4.7 19:17:42 10° NW 19:18:11 13° NW 19:18:11 13° NW visible
08 Dec 4.0 17:21:47 10° N 17:23:45 13° NNE 17:25:43 10° NE visible
08 Dec 3.8 18:59:16 10° NW 19:00:58 24° NNW 19:00:58 24° NNW visible
09 Dec 2.4 18:40:50 10° NW 18:43:57 50° NNW 18:43:57 50° NNW visible
10 Dec 1.8 18:22:23 10° NW 18:26:17 68° NE 18:27:13 47° ESE visible
11 Dec 1.8 18:03:57 10° NW 18:07:51 73° NE 18:10:54 16° SE visible
11 Dec 5.1 19:44:36 10° WSW 19:45:50 12° WSW 19:45:50 12° WSW visible
